{"data":{"norad_id":56011,"intl_designator":"2023-042AB","name":"STARLINK-5936","alt_names":[],"object_type":"PAYLOAD","status":"ACTIVE","operator":null,"country":"US","launch_date":"2023-03-24","launch_site_code":"AFETR","launch_vehicle":null,"mission":null,"orbit_class":"UNKNOWN","rcs_meters":null,"size_class":null,"mass_kg":null,"dimensions":null,"purposes":["comms"],"wikipedia_slug":null,"has_3d_model":false,"image_url":null,"decayed_at":null,"tle_current":{"epoch":"2026-09-20T15:36:34.203168Z","epoch_age_seconds":93234,"freshness":"FRESH","line1":"1 56011U 23042AB  26263.65039587 -.00000249  00000+0  49859-6 0  9992","line2":"2 56011  43.0059  24.0745 0001510 284.9571  75.1113 15.27576801192856","mean_motion":15.27576801,"eccentricity":0.000151,"inclination_deg":43.0059,"raan_deg":24.0745,"arg_perigee_deg":284.9571,"mean_anomaly_deg":75.1113,"bstar":4.9859e-7,"rev_number":19285,"period_min":94.266946123909,"perigee_km":482.02263446628,"apogee_km":484.09471556013,"semimajor_km":6861.1956750132,"source":"CELESTRAK","updated_at":"2026-09-21T09:00:33.354314Z"}}}